Weather History for KMAI - April, 2014

Change the Weather History Date:

Tuesday, April 1, 2014

  Actual Average Record
Temperature  
Mean Temperature 63 °F 63 °F  
Max Temperature 83 °F 76 °F 86 °F (2012)
Min Temperature 43 °F 51 °F 37 °F (2003)
Degree Days  
Heating Degree Days 2    
Month to date heating degree days 2  
Since 1 July heating degree days 1680  
Cooling Degree Days 0    
Month to date cooling degree days 0  
Year to date cooling degree days 12  
Growing Degree Days 14 (Base 50)    
Moisture  
Dew Point 45 °F    
Average Humidity 60    
Maximum Humidity 100    
Minimum Humidity 20    
Precipitation  
Precipitation 0.00 in 0.18 in 2.04 in (2005)
Month to date precipitation 0.00 0.18  
Year to date precipitation 15.19 15.70  
Sea Level Pressure  
Sea Level Pressure 30.14 in    
Wind  
Wind Speed 4 mph (SSW)    
Max Wind Speed 14 mph    
Max Gust Speed 17 mph    
Visibility 10 miles    
Events      
T = Trace of Precipitation, MM = Missing Value Source: NWS Daily Summary

Daily Weather History Graph

Daily Weather History Graph

Search for Another Location

Airport or City:

Trip Planner

Search our weather history database for the weather conditions in past years. The results will help you decide how hot, cold, wet, or windy it might be!

Date:

Astronomy

Apr. 01, 2014 Rise Set
Actual Time 6:29 AM CDT 6:59 PM CDT
Civil Twilight 6:05 AM CDT 7:24 PM CDT
Nautical Twilight 5:36 AM CDT 7:52 PM CDT
Astronomical Twilight 5:08 AM CDT 8:21 PM CDT
Moon 7:39 AM CDT (4/1) 9:11 PM CDT (4/1)
Length of Visible Light 13h 18m
Length of Day
12h 30m
Waxing Crescent, 5% of the Moon is Illuminated
Apr 1
Waxing Crescent
Apr 7
First Quarter
Apr 15
Full
Apr 22
Last Quarter
Apr 29
New

Hourly Weather History & Observations

Time (CDT) Temp. Windchill Dew Point Humidity Pressure Visibility Wind Dir Wind Speed Gust Speed Precip Events Conditions
12:53 AM 50.0 °F - 46.0 °F 86% 30.14 in 10.0 mi Calm Calm - N/A   Clear
1:53 AM 48.9 °F - 46.0 °F 90% 30.13 in 10.0 mi Calm Calm - N/A   Clear
2:53 AM 48.0 °F - 46.0 °F 93% 30.12 in 10.0 mi Calm Calm - N/A   Clear
3:53 AM 45.0 °F - 44.1 °F 97% 30.11 in 10.0 mi Calm Calm - N/A   Clear
4:53 AM 45.0 °F - 44.1 °F 97% 30.12 in 10.0 mi Calm Calm - N/A   Clear
5:53 AM 45.0 °F - 44.1 °F 97% 30.14 in 10.0 mi Calm Calm - N/A   Clear
6:53 AM 45.0 °F 43.5 °F 44.1 °F 97% 30.17 in 10.0 mi South 3.5 mph - N/A   Clear
7:53 AM 50.0 °F - 48.0 °F 93% 30.19 in 10.0 mi Calm Calm - N/A   Clear
8:53 AM 57.0 °F - 51.1 °F 81% 30.21 in 10.0 mi Calm Calm - N/A   Clear
9:53 AM 63.0 °F - 50.0 °F 63% 30.20 in 10.0 mi Calm Calm - N/A   Clear
10:53 AM 70.0 °F - 46.0 °F 42% 30.18 in 10.0 mi South 5.8 mph - N/A   Clear
11:53 AM 75.0 °F - 41.0 °F 29% 30.15 in 10.0 mi South 10.4 mph - N/A   Clear
12:53 PM 77.0 °F - 39.9 °F 26% 30.14 in 10.0 mi Calm Calm - N/A   Clear
1:53 PM 80.1 °F - 35.1 °F 20% 30.12 in 10.0 mi South 6.9 mph - N/A   Clear
2:53 PM 82.0 °F - 39.0 °F 22% 30.10 in 10.0 mi SW 10.4 mph - N/A   Clear
3:53 PM 82.0 °F - 37.9 °F 21% 30.09 in 10.0 mi WSW 6.9 mph - N/A   Clear
4:53 PM 82.0 °F - 37.9 °F 21% 30.08 in 10.0 mi SW 8.1 mph - N/A   Clear
5:53 PM 81.0 °F - 39.9 °F 23% 30.09 in 10.0 mi WSW 11.5 mph - N/A   Clear
6:53 PM 73.0 °F - 41.0 °F 31% 30.11 in 10.0 mi SW 9.2 mph - N/A   Clear
7:53 PM 66.9 °F - 43.0 °F 42% 30.12 in 10.0 mi SW 8.1 mph - N/A   Clear
8:53 PM 62.1 °F - 48.0 °F 60% 30.14 in 10.0 mi SSW 6.9 mph - N/A   Clear
9:53 PM 59.0 °F - 53.1 °F 81% 30.15 in 10.0 mi SSW 4.6 mph - N/A   Clear
10:53 PM 59.0 °F - 55.0 °F 87% 30.14 in 10.0 mi South 3.5 mph - N/A   Clear
11:53 PM 55.0 °F - 53.1 °F 93% 30.14 in 10.0 mi Calm Calm - N/A   Clear